K2GFM Weather Reports


Display with metric or nautical units.
time (UTC)temp
F
wind
direction
speed
MPH
gust
MPH
rain 1hr
in
rain 24hr
in
rain mn
in
humidity
%
barometer
mb
20260506181559 62 0 0.0 6.0 0.02 0.02 0.02 85 1009.7
20260506180057 62 212 2.0 7.0 0.01 0.01 0.01 82 1010.3
20260506174558 63 126 3.0 8.0 0.00 0.00 0.00 80 1010.2
20260506173127 64 184 2.0 9.0 0.00 0.00 0.00 80 1010.4
20260506171610 64 246 2.0 11.0 0.00 0.00 0.00 80 1010.4
20260506170057 64 10 3.0 12.0 0.00 0.00 0.00 78 1010.4
20260506164606 64 145 3.0 12.0 0.00 0.00 0.00 76 1010.9
20260506163107 64 186 4.0 10.0 0.00 0.00 0.00 75 1011.3
20260506161639 64 139 3.0 9.0 0.00 0.00 0.00 75 1011.4
20260506160108 64 219 3.0 11.0 0.00 0.00 0.00 76 1011.5
20260506154600 65 189 4.0 12.0 0.00 0.00 0.00 74 1011.6
20260506153100 66 186 4.0 12.0 0.00 0.00 0.00 74 1011.7
20260506151558 67 124 4.0 9.0 0.00 0.00 0.00 73 1011.6
20260506150059 67 263 4.0 11.0 0.00 0.00 0.00 72 1011.6
20260506144559 67 186 3.0 10.0 0.00 0.00 0.00 72 1011.7
20260506143058 68 193 3.0 10.0 0.00 0.00 0.00 71 1011.8
20260506141600 67 238 3.0 10.0 0.00 0.00 0.00 72 1011.9
20260506134556 64 122 5.0 9.0 0.00 0.00 0.00 76 1011.9
20260506133100 65 225 4.0 11.0 0.00 0.00 0.00 74 1012.0
20260506131602 66 163 3.0 10.0 0.00 0.00 0.00 73 1012.1
20260506130131 66 148 3.0 8.0 0.00 0.00 0.00 72 1012.0
20260506124601 65 160 3.0 10.0 0.00 0.00 0.00 76 1012.0
20260506123057 64 128 3.0 10.0 0.00 0.00 0.00 77 1012.1
20260506121559 63 162 2.0 11.0 0.00 0.00 0.00 79 1012.2
20260506120105 63 166 3.0 8.0 0.00 0.00 0.00 79 1012.2
20260506114557 62 144 3.0 10.0 0.00 0.00 0.00 81 1012.0
20260506113058 60 225 2.0 9.0 0.00 0.00 0.00 84 1012.1
20260506111555 59 232 2.0 5.0 0.00 0.00 0.00 85 1012.2
20260506104558 58 205 2.0 7.0 0.00 0.00 0.00 87 1012.3
20260506103059 57 266 0.0 8.0 0.00 0.00 0.00 87 1012.1
20260506101608 57 136 1.0 5.0 0.00 0.00 0.00 87 1011.9
20260506100119 57 278 2.0 8.0 0.00 0.00 0.00 87 1011.9
20260506094556 57 0 1.0 8.0 0.00 0.00 0.00 87 1011.8
20260506093059 57 233 0.0 8.0 0.00 0.00 0.00 86 1011.8
20260506091558 58 153 2.0 6.0 0.00 0.00 0.00 85 1011.9
20260506090057 58 165 2.0 9.0 0.00 0.00 0.00 85 1012.0
20260506084621 58 186 2.0 6.0 0.00 0.00 0.00 86 1012.3
20260506083058 58 160 2.0 7.0 0.00 0.00 0.00 86 1012.3
20260506081600 58 137 1.0 8.0 0.00 0.00 0.00 85 1012.3
20260506073057 58 167 2.0 6.0 0.00 0.00 0.00 86 1012.2
20260506071559 58 150 2.0 11.0 0.00 0.00 0.00 86 1012.2
20260506061556 58 133 1.0 6.0 0.00 0.00 0.00 84 1012.4
20260506044704 60 193 3.0 10.0 0.00 0.00 0.00 80 1013.0
20260506043108 59 168 3.0 13.0 0.00 0.00 0.00 80 1012.9
20260506041603 59 181 2.0 7.0 0.00 0.00 0.00 80 1012.9
20260506040057 60 166 2.0 9.0 0.00 0.00 0.00 80 1012.9
20260506034627 60 179 3.0 10.0 0.00 0.00 0.00 79 1012.9
20260506033103 60 162 4.0 10.0 0.00 0.00 0.00 78 1013.0
20260506031603 60 195 3.0 12.0 0.00 0.00 0.00 78 1013.1
20260506030057 61 223 4.0 9.0 0.00 0.00 0.00 77 1013.1
20260506024558 61 207 3.0 8.0 0.00 0.00 0.00 76 1013.1
20260506023113 62 243 4.0 15.0 0.00 0.00 0.00 75 1013.1
20260506021559 62 241 3.0 12.0 0.00 0.00 0.00 75 1013.1
20260506020100 61 231 6.0 19.0 0.00 0.00 0.00 75 1013.1
20260506014602 61 265 4.0 14.0 0.00 0.00 0.00 75 1013.0
20260506013103 61 208 4.0 11.0 0.00 0.00 0.00 75 1012.9
20260506011627 61 233 4.0 17.0 0.00 0.00 0.00 76 1013.0
20260506010103 60 249 5.0 18.0 0.00 0.00 0.00 76 1012.8
20260506004631 61 207 5.0 16.0 0.00 0.00 0.00 77 1012.6
20260506003113 61 252 3.0 11.0 0.00 0.00 0.00 76 1012.7
20260506001559 61 227 5.0 13.0 0.00 0.00 0.00 75 1012.6
20260506000100 62 212 4.0 12.0 0.00 0.00 0.00 74 1012.4
20260505234630 63 203 6.0 17.0 0.00 0.00 0.00 72 1012.5
20260505233105 64 231 4.0 13.0 0.00 0.00 0.00 71 1012.2
20260505231600 65 300 5.0 14.0 0.00 0.00 0.00 68 1012.2
20260505230057 67 176 5.0 18.0 0.00 0.00 0.00 66 1012.2
20260505224607 67 11 4.0 17.0 0.00 0.00 0.00 66 1012.2
20260505223057 67 203 4.0 14.0 0.00 0.00 0.00 66 1011.8
20260505221557 67 235 6.0 15.0 0.00 0.00 0.00 66 1011.8
20260505220105 67 174 5.0 19.0 0.00 0.00 0.00 66 1011.7
20260505214604 68 191 5.0 17.0 0.00 0.00 0.00 64 1011.6
20260505213103 69 174 6.0 16.0 0.00 0.00 0.00 64 1011.5
20260505211602 69 111 4.0 14.0 0.00 0.00 0.00 64 1011.5
20260505210058 69 140 6.0 13.0 0.00 0.00 0.00 64 1011.5
20260505204606 69 204 4.0 15.0 0.00 0.00 0.00 63 1011.5
20260505203058 70 263 4.0 19.0 0.00 0.00 0.00 63 1011.5
20260505201557 70 226 3.0 12.0 0.00 0.00 0.00 64 1011.4
20260505200104 71 74 5.0 13.0 0.00 0.00 0.00 63 1011.6
20260505194559 72 147 3.0 14.0 0.00 0.00 0.00 62 1011.6
20260505193058 71 212 6.0 13.0 0.00 0.00 0.00 64 1011.8
20260505191603 70 203 7.0 13.0 0.00 0.00 0.00 65 1012.0
20260505190057 71 205 6.0 14.0 0.00 0.00 0.00 63 1012.0
20260505184602 72 207 3.0 11.0 0.00 0.00 0.00 62 1012.2
20260505183103 73 143 4.0 10.0 0.00 0.00 0.00 62 1012.1